Location: Eexterzandvoort
(53.0303°N, 6.7884°E)
Time: 01:15:07
(UTC+00:00)

Spot 1 - Pass Details

Date: 19 May 2025
Orbit: 569 x 752 km, 98.7° (Epoch: 23 June)

Event Time Altitude Azimuth Distance (km) Brightness Sun altitude
Rises 23:17:49 0° 15° (NNE) 2,851 8.9 -16.9°
Reaches altitude 10° 23:19:56 10° 15° (NNE) 1,966 7.8 -17.0°
Maximum altitude 23:24:13 87° 287° (WNW) 636 4.0 -17.0°
Enters shadow 23:26:19 31° 199° (SSW) 1,125 4.9 -17.0°
